Location: Kaltenbach
(49.2000°N, 7.7500°E)
Time: 10:42:28
(UTC+00:00)

Meteor 2-12 Rocket - Pass Details

Date: 24 January 2020
Orbit: 936 x 957 km, 82.5° (Epoch: 17 February)

Event Time Altitude Azimuth Distance (km) Brightness Sun altitude
Rises 18:30:37 0° 185° (S) 3,583 7.6 -22.4°
Reaches altitude 10° 18:33:05 10° 184° (S) 2,642 6.8 -22.8°
Maximum altitude 18:39:07 83° 99° (E) 949 4.3 -23.8°
Drops below altitude 10° 18:45:12 10° 11° (N) 2,661 6.7 -24.8°
Sets 18:47:42 0° 11° (N) 3,611 7.4 -25.2°
